�������l�o���
Date,Time,MP-1(��Sv/h),MP-2(��Sv/h),MP-3(��Sv/h),MP-4(��Sv/h),MP-5(��Sv/h),MP-6(��Sv/h),MP-7(��Sv/h),����,����(m/s),���J
2016/12/16,00:00,0.383,0.232,0.397,0.367,0.341,0.190,0.162,�k�k��,5.5,��
2016/12/16,00:10,0.382,0.231,0.396,0.366,0.340,0.191,0.162,�k�k��,5.3,��
2016/12/16,00:20,0.384,0.233,0.398,0.366,0.341,0.190,0.162,�k�k��,5.3,��
2016/12/16,00:30,0.381,0.231,0.396,0.367,0.340,0.190,0.162,�k�k��,6.3,��
2016/12/16,00:40,0.381,0.232,0.398,0.367,0.339,0.190,0.162,�k�k��,5.9,��
2016/12/16,00:50,0.383,0.231,0.397,0.368,0.340,0.190,0.162,�k,6.1,��
2016/12/16,01:00,0.382,0.230,0.397,0.367,0.341,0.190,0.162,�k�k��,6.9,��
2016/12/16,01:10,0.381,0.230,0.397,0.369,0.340,0.189,0.162,�k�k��,6.3,��
2016/12/16,01:20,0.381,0.230,0.397,0.366,0.340,0.189,0.162,�k,6.4,��
2016/12/16,01:30,0.382,0.231,0.397,0.366,0.339,0.189,0.162,�k�k��,6.7,��
2016/12/16,01:40,0.382,0.232,0.398,0.367,0.341,0.189,0.162,�k�k��,7.0,��
2016/12/16,01:50,0.383,0.230,0.397,0.368,0.340,0.190,0.162,�k�k��,5.9,��
2016/12/16,02:00,0.383,0.232,0.395,0.367,0.340,0.189,0.162,�k�k��,6.2,��
2016/12/16,02:10,0.381,0.231,0.396,0.367,0.340,0.189,0.162,�k,5.1,��
2016/12/16,02:20,0.382,0.232,0.398,0.366,0.340,0.189,0.162,�k,4.2,��
2016/12/16,02:30,0.381,0.230,0.397,0.368,0.339,0.189,0.162,�k,5.4,��
2016/12/16,02:40,0.382,0.230,0.397,0.368,0.339,0.189,0.162,�k,6.1,��
2016/12/16,02:50,0.382,0.232,0.396,0.367,0.339,0.189,0.162,�k,6.0,��
2016/12/16,03:00,0.380,0.232,0.397,0.366,0.341,0.191,0.163,�k,6.2,��
2016/12/16,03:10,0.381,0.231,0.398,0.367,0.339,0.190,0.162,�k,6.4,��
2016/12/16,03:20,0.382,0.231,0.397,0.369,0.340,0.189,0.162,�k�k��,5.8,��
2016/12/16,03:30,0.383,0.232,0.396,0.368,0.339,0.190,0.162,�k�k��,6.6,��
2016/12/16,03:40,0.383,0.232,0.397,0.368,0.339,0.189,0.163,�k�k��,6.8,��
2016/12/16,03:50,0.383,0.230,0.397,0.366,0.341,0.190,0.163,�k�k��,8.3,��
2016/12/16,04:00,0.381,0.231,0.398,0.366,0.340,0.190,0.162,�k�k��,6.7,��
2016/12/16,04:10,0.384,0.231,0.397,0.366,0.339,0.189,0.161,�k�k��,6.7,��
2016/12/16,04:20,0.381,0.231,0.396,0.367,0.338,0.190,0.162,�k�k��,7.1,��
2016/12/16,04:30,0.382,0.231,0.395,0.366,0.339,0.190,0.162,�k�k��,7.0,��
2016/12/16,04:40,0.380,0.230,0.396,0.367,0.340,0.190,0.162,�k�k��,7.1,��
2016/12/16,04:50,0.381,0.230,0.397,0.368,0.340,0.189,0.162,�k,7.0,��
2016/12/16,05:00,0.383,0.230,0.399,0.368,0.340,0.190,0.162,�k�k��,7.5,��
2016/12/16,05:10,0.382,0.230,0.398,0.367,0.339,0.190,0.162,�k,6.5,��
2016/12/16,05:20,0.382,0.230,0.398,0.367,0.340,0.190,0.162,�k,6.9,��
2016/12/16,05:30,0.381,0.231,0.397,0.366,0.341,0.190,0.163,�k,6.4,��
2016/12/16,05:40,0.384,0.231,0.396,0.367,0.340,0.190,0.163,�k,6.1,��
2016/12/16,05:50,0.383,0.231,0.396,0.368,0.340,0.190,0.163,�k,5.8,��
2016/12/16,06:00,0.381,0.231,0.395,0.367,0.339,0.188,0.162,�k,7.0,��
2016/12/16,06:10,0.381,0.232,0.397,0.366,0.339,0.190,0.162,�k,7.3,��
2016/12/16,06:20,0.383,0.231,0.399,0.367,0.341,0.191,0.162,�k,7.0,��
2016/12/16,06:30,0.382,0.233,0.397,0.367,0.341,0.191,0.161,�k,6.4,��
2016/12/16,06:40,0.383,0.232,0.398,0.366,0.342,0.190,0.162,�k,7.0,��
2016/12/16,06:50,0.380,0.232,0.396,0.367,0.339,0.191,0.162,�k,7.3,��
2016/12/16,07:00,0.381,0.231,0.398,0.366,0.340,0.191,0.163,�k,7.0,��
2016/12/16,07:10,0.383,0.232,0.397,0.368,0.340,0.190,0.162,�k,7.2,��
2016/12/16,07:20,0.382,0.231,0.396,0.367,0.339,0.189,0.163,�k,7.2,��
2016/12/16,07:30,0.383,0.232,0.396,0.367,0.340,0.190,0.162,�k,6.5,��
2016/12/16,07:40,0.382,0.232,0.396,0.366,0.339,0.190,0.162,�k,5.7,��
2016/12/16,07:50,0.383,0.232,0.396,0.367,0.340,0.190,0.163,�k,5.6,��
2016/12/16,08:00,0.382,0.231,0.395,0.366,0.339,0.190,0.162,�k,6.3,��
2016/12/16,08:10,0.380,0.231,0.395,0.366,0.338,0.189,0.162,�k�k��,5.0,��
2016/12/16,08:20,0.382,0.231,0.396,0.367,0.340,0.189,0.163,�k�k��,5.0,��
2016/12/16,08:30,0.382,0.231,0.397,0.367,0.340,0.190,0.162,�k�k��,4.2,��
2016/12/16,08:40,0.383,0.230,0.398,0.368,0.339,0.191,0.163,�k�k��,4.8,��
2016/12/16,08:50,0.382,0.232,0.397,0.367,0.340,0.190,0.162,�k�k��,4.7,��
2016/12/16,09:00,0.381,0.231,0.398,0.366,0.340,0.191,0.162,�k�k��,3.5,��
2016/12/16,09:10,0.383,0.230,0.395,0.367,0.341,0.190,0.162,�k�k��,2.2,��
2016/12/16,09:20,0.382,0.232,0.395,0.367,0.340,0.190,0.162,�k��,1.0,��
2016/12/16,09:30,0.381,0.232,0.396,0.368,0.341,0.190,0.162,�쐼,0.8,��
2016/12/16,09:40,0.382,0.232,0.398,0.368,0.341,0.189,0.163,-,CALM,��
2016/12/16,09:50,0.382,0.232,0.395,0.366,0.341,0.190,0.163,��쐼,0.7,��
2016/12/16,10:00,0.381,0.232,0.394,0.367,0.340,0.190,0.162,���쐼,1.1,��
2016/12/16,10:10,0.382,0.231,0.397,0.368,0.339,0.190,0.163,���k��,2.8,��
2016/12/16,10:20,0.381,0.231,0.396,0.367,0.340,0.190,0.162,���k��,4.4,��
2016/12/16,10:30,0.380,0.229,0.396,0.365,0.339,0.190,0.162,�k��,4.6,��
2016/12/16,10:40,0.382,0.230,0.397,0.366,0.339,0.189,0.160,���k��,6.9,��
2016/12/16,10:50,0.379,0.230,0.396,0.365,0.339,0.191,0.162,�k��,7.0,��
2016/12/16,11:00,0.380,0.232,0.396,0.367,0.338,0.190,0.161,�k��,6.2,��
2016/12/16,11:10,0.382,0.231,0.395,0.367,0.341,0.190,0.162,�k��,5.0,��
2016/12/16,11:20,0.382,0.230,0.396,0.366,0.338,0.191,0.163,�k��,3.0,��
2016/12/16,11:30,0.381,0.230,0.397,0.368,0.340,0.190,0.162,�k��,6.2,��
2016/12/16,11:40,0.381,0.230,0.396,0.366,0.340,0.189,0.161,���k��,6.2,��
2016/12/16,11:50,0.381,0.231,0.397,0.368,0.340,0.191,0.162,���k��,5.9,��
2016/12/16,12:00,0.381,0.232,0.394,0.367,0.340,0.191,0.162,���k��,5.8,��
2016/12/16,12:10,0.382,0.231,0.396,0.366,0.338,0.191,0.162,���k��,6.4,��
2016/12/16,12:20,0.381,0.230,0.397,0.368,0.341,0.191,0.162,���k��,8.1,��
2016/12/16,12:30,0.383,0.231,0.396,0.365,0.343,0.191,0.162,�k��,5.4,��
2016/12/16,12:40,0.382,0.232,0.396,0.369,0.341,0.191,0.162,�k��,5.0,��
2016/12/16,12:50,0.380,0.232,0.395,0.366,0.341,0.190,0.163,���k��,6.3,��
2016/12/16,13:00,0.383,0.231,0.395,0.367,0.341,0.190,0.162,���k��,9.1,��
2016/12/16,13:10,0.381,0.232,0.397,0.367,0.341,0.191,0.163,�k��,7.1,��
2016/12/16,13:20,0.382,0.231,0.396,0.368,0.344,0.191,0.162,���k��,5.2,��
2016/12/16,13:30,0.383,0.231,0.399,0.370,0.342,0.191,0.163,���k��,5.5,��
2016/12/16,13:40,0.382,0.231,0.398,0.367,0.341,0.191,0.162,��,7.1,��
2016/12/16,13:50,0.383,0.231,0.396,0.369,0.341,0.190,0.163,�k��,4.4,��
2016/12/16,14:00,0.382,0.232,0.399,0.366,0.341,0.191,0.163,���k��,6.4,��
2016/12/16,14:10,0.383,0.231,0.399,0.368,0.339,0.190,0.163,���k��,2.8,��
2016/12/16,14:20,0.382,0.232,0.396,0.368,0.341,0.189,0.163,���k��,2.8,��
2016/12/16,14:30,0.383,0.231,0.399,0.367,0.341,0.191,0.163,�k��,4.6,��
2016/12/16,14:40,0.384,0.231,0.398,0.368,0.342,0.189,0.163,�k��,5.0,��
2016/12/16,14:50,0.385,0.231,0.398,0.369,0.341,0.191,0.163,���k��,3.4,��
2016/12/16,15:00,0.382,0.231,0.397,0.367,0.343,0.190,0.162,���k��,5.8,��
2016/12/16,15:10,0.381,0.232,0.398,0.368,0.341,0.190,0.163,���k��,3.3,��
2016/12/16,15:20,0.385,0.232,0.397,0.368,0.339,0.189,0.163,��,4.8,��
2016/12/16,15:30,0.385,0.232,0.397,0.368,0.342,0.191,0.163,���k��,3.6,��
2016/12/16,15:40,0.382,0.231,0.396,0.369,0.340,0.189,0.163,�k,2.3,��
2016/12/16,15:50,0.382,0.232,0.396,0.369,0.339,0.191,0.163,�k��,1.9,��
2016/12/16,16:00,0.383,0.231,0.397,0.367,0.341,0.190,0.163,��,2.0,��
2016/12/16,16:10,0.383,0.232,0.398,0.368,0.340,0.191,0.163,��,2.7,��
2016/12/16,16:20,0.383,0.231,0.398,0.368,0.340,0.189,0.164,��,4.2,��
2016/12/16,16:30,0.382,0.231,0.397,0.369,0.340,0.190,0.162,��,5.0,��
2016/12/16,16:40,0.383,0.231,0.396,0.367,0.340,0.190,0.163,���k��,5.0,��
2016/12/16,16:50,0.383,0.230,0.398,0.369,0.340,0.190,0.163,���k��,3.9,��
2016/12/16,17:00,0.382,0.231,0.397,0.369,0.340,0.191,0.162,�k��,3.9,��
2016/12/16,17:10,0.382,0.232,0.397,0.368,0.341,0.190,0.163,�k��,4.5,��
2016/12/16,17:20,0.383,0.232,0.397,0.368,0.340,0.190,0.163,���k��,4.7,��
2016/12/16,17:30,0.382,0.231,0.397,0.368,0.340,0.190,0.162,���k��,3.2,��
2016/12/16,17:40,0.382,0.231,0.397,0.369,0.340,0.192,0.163,��,3.6,��
2016/12/16,17:50,0.382,0.232,0.396,0.369,0.341,0.190,0.163,���k��,2.3,��
2016/12/16,18:00,0.383,0.232,0.396,0.369,0.340,0.190,0.164,�k��,3.7,��
2016/12/16,18:10,0.383,0.231,0.396,0.369,0.341,0.189,0.163,�k�k��,2.5,��
2016/12/16,18:20,0.381,0.231,0.398,0.369,0.341,0.191,0.164,�k��,1.5,��
2016/12/16,18:30,0.382,0.232,0.396,0.367,0.341,0.190,0.163,���k��,0.8,��
2016/12/16,18:40,0.383,0.231,0.397,0.368,0.340,0.190,0.162,�k��,1.1,��
2016/12/16,18:50,0.383,0.233,0.396,0.369,0.341,0.191,0.163,�k�k��,1.1,��
2016/12/16,19:00,0.382,0.231,0.397,0.369,0.338,0.191,0.162,�k�k��,1.0,��
2016/12/16,19:10,0.382,0.230,0.397,0.368,0.341,0.191,0.162,�k,0.6,��
2016/12/16,19:20,0.382,0.232,0.398,0.368,0.341,0.190,0.163,�k,0.8,��
2016/12/16,19:30,0.383,0.233,0.398,0.368,0.339,0.190,0.163,�k�k��,0.7,��
2016/12/16,19:40,0.382,0.230,0.399,0.369,0.338,0.190,0.162,-,CALM,��
2016/12/16,19:50,0.383,0.232,0.397,0.368,0.340,0.192,0.163,-,CALM,��
2016/12/16,20:00,0.382,0.231,0.399,0.369,0.341,0.191,0.162,-,CALM,��
2016/12/16,20:10,0.382,0.230,0.396,0.369,0.341,0.190,0.162,-,CALM,��
2016/12/16,20:20,0.382,0.231,0.398,0.367,0.340,0.190,0.162,-,CALM,��
2016/12/16,20:30,0.383,0.232,0.397,0.370,0.340,0.190,0.163,��쐼,0.6,��
2016/12/16,20:40,0.382,0.232,0.399,0.369,0.340,0.191,0.163,-,CALM,��
2016/12/16,20:50,0.382,0.233,0.398,0.368,0.340,0.190,0.163,��쐼,0.6,��
2016/12/16,21:00,0.383,0.232,0.397,0.367,0.341,0.191,0.162,��,2.2,��
2016/12/16,21:10,0.382,0.231,0.397,0.369,0.340,0.191,0.163,-,CALM,��
2016/12/16,21:20,0.383,0.231,0.397,0.369,0.339,0.191,0.163,���k��,1.0,��
2016/12/16,21:30,0.383,0.231,0.398,0.369,0.338,0.190,0.163,�k��,2.6,��
2016/12/16,21:40,0.382,0.231,0.399,0.368,0.340,0.192,0.162,�k��,2.5,��
2016/12/16,21:50,0.383,0.232,0.399,0.368,0.341,0.190,0.162,�k��,2.0,��
2016/12/16,22:00,0.383,0.232,0.397,0.368,0.340,0.191,0.163,���k��,1.5,��
2016/12/16,22:10,0.382,0.233,0.398,0.369,0.339,0.191,0.164,��,1.5,��
2016/12/16,22:20,0.383,0.233,0.398,0.369,0.340,0.190,0.164,���쐼,3.2,��
2016/12/16,22:30,0.382,0.232,0.398,0.368,0.340,0.191,0.163,���k��,4.7,��
2016/12/16,22:40,0.382,0.232,0.400,0.368,0.339,0.191,0.164,��,6.4,��
2016/12/16,22:50,0.382,0.232,0.398,0.368,0.341,0.191,0.163,��,7.9,��
2016/12/16,23:00,0.383,0.232,0.398,0.368,0.339,0.191,0.162,��,8.6,��
2016/12/16,23:10,0.384,0.230,0.397,0.368,0.339,0.191,0.162,��,7.3,��
2016/12/16,23:20,0.383,0.230,0.398,0.369,0.338,0.190,0.163,��,7.0,��
2016/12/16,23:30,0.382,0.230,0.397,0.369,0.340,0.190,0.163,��,3.9,��
2016/12/16,23:40,0.381,0.232,0.397,0.368,0.340,0.191,0.163,��,4.8,��
2016/12/16,23:50,0.383,0.231,0.396,0.369,0.339,0.191,0.162,���쐼,3.4,��
